Location: Unspecified
(37.6100°N, 2.7800°W)
Time: 18:29:52
(UTC+00:00)

N. Korean satellite - Visible Passes

Search period start: 20 September 2017 00:00
Search period end: 30 September 2017 00:00
Orbit: 461 x 515 km, 97.2° (Epoch: 19 September)

Date Brightness Start Highest point End Pass type
(mag) Time Alt. Az. Time Alt. Az. Time Alt. Az.
20 Sep 7.8 18:37:18 10° S 18:40:57 50° W 18:44:37 10° NNW visible
22 Sep 10.1 19:26:38 10° WSW 19:28:16 12° W 19:29:55 10° WNW visible
23 Sep 9.3 19:01:50 10° SSW 19:04:55 24° W 19:08:00 10° NW visible
24 Sep 7.8 18:38:01 10° S 18:41:39 48° W 18:45:16 10° NNW visible
26 Sep 10.1 19:27:27 10° WSW 19:28:57 12° W 19:30:26 10° WNW visible
27 Sep 9.3 19:02:33 10° SSW 19:05:35 23° W 19:08:35 10° NW visible
28 Sep 7.9 18:38:41 10° S 18:42:16 46° W 18:45:51 10° NNW visible
